Hong Kong, China

09:15 PM CST on Pebruari 20, 2017 (GMT +0800)
Hong Kong International | | Change Station

Elev 26 ft 22.31 °N, 113.91 °E | Updated 15 minutes ago

Partly Cloudy
Mendung Sebagian
72 °F
Feels Like 72 °F
N
5
Angin Variable Angin from Variable

Siang Ini
High -- | Low -- °F
--% Chance of Precip.
Yesterday
High -- | Low -- °F
Precip. -- Inch
Tekanan 29.95 Inch
Jarak Pandang 6.2 Mil
Awan Few 3000 ft
Titik Embun 64 °F
Kelembaban 78%
Rainfall 0.00 Inch
Snow Depth Not available.
6:52 AM 6:23 PM
Waning Crescent, 34% visible
METAR VHHH 201300Z VRB04KT 9999 FEW030 22/18 Q1014 NOSIG
Tekanan 29.95 Inch
Jarak Pandang 6.2 Mil
Awan Few 3000 ft
Titik Embun 64 °F
Kelembaban 78%
Rainfall 0.00 Inch
Snow Depth Not available.
6:52 AM 6:23 PM
Waning Crescent, 34% visible
METAR VHHH 201300Z VRB04KT 9999 FEW030 22/18 Q1014 NOSIG

Get Your Daily Forecast Email!

Thanks for signing up!

Be on the lookout for a verification email in your inbox.

You'll start receiving the daily forecast at 8 AM.

×

10-Day Weather Forecast

No radar image for this location.
×

Almanac

Astronomi

Feb. 20, 2017 Rise Set
Actual Time
Civil Twilight
Nautical Twilight
Astronomical Twilight
Moon
Length Of Visible Light
Lama Satu Hari
Tomorrow will be .
, % of the Moon is Illuminated

Today's Extremes

Country Highs Country Lows

Community

WunderPhotos

Upload Photos

1,962,540 photos uploaded!

WunderBlog® & News

Nearby

Air Quality

  Air Quality AQ Index Pollutant
Not available.

Snow Depth

Station Depth Elevation

Earthquake Activity

City Distance Mag. Time & Date
Minimum magnitude displayed is 2.5.

Coastal Water Temperatures

Lokasi Temperatur

Stations

Nearby Weather Stations

Station Location Temp Angin Dingin Titik Embun Kelembaban Angin Precip. Elev Telah Diperbaharui Type